Weather History for Summerville, SC

Change the Weather History Date:

Tuesday, February 19, 2013

  Actual Average (KCHS) Record (KCHS)
Temperature  
Mean Temperature 46 °F 52 °F  
Max Temperature 59 °F 64 °F 83 °F (1956)
Min Temperature 33 °F 41 °F 20 °F (1958)
Degree Days  
Heating Degree Days 19 13  
Month to date heating degree days 272  
Since 1 July heating degree days 1531  
Cooling Degree Days 0 0  
Month to date cooling degree days 0  
Year to date cooling degree days 2  
Moisture  
Dew Point 48 °F    
Average Humidity 95    
Maximum Humidity 100    
Minimum Humidity 72    
Precipitation  
Precipitation 0.00 in 0.11 in 1.26 in (2012)
Month to date precipitation 2.01  
Year to date precipitation 5.72  
Sea Level Pressure  
Sea Level Pressure 30.08 in    
Wind  
Wind Speed 3 mph (SSW)    
Max Wind Speed 10 mph    
Max Gust Speed 18 mph    
Visibility 7 miles    
Events Fog , Rain    
T = Trace of Precipitation, MM = Missing Value Source: NWS Daily Summary

Daily Weather History Graph

Daily Weather History Graph

Search for Another Location

Airport:

Trip Planner

Search our weather history database for the weather conditions in past years. The results will help you decide how hot, cold, wet, or windy it might be!

Date:

Astronomy

Feb. 19, 2013 Rise Set
Actual Time 7:00 AM EST 6:10 PM EST
Civil Twilight 6:35 AM EST 6:35 PM EST
Nautical Twilight 6:06 AM EST 7:04 PM EST
Astronomical Twilight 5:37 AM EST 7:32 PM EST
Moon 12:49 PM EST (2/19) 2:21 AM EST (2/19)
Length of Visible Light 12h 00m
Length of Day
11h 09m
Waxing Gibbous, 67% of the Moon is Illuminated
Feb 19
Waxing Gibbous
Feb 25
Full
Mar 4
Last Quarter
Mar 11
New
Mar 19
First Quarter

Hourly Weather History & Observations

Time (EST) Temp. Windchill Dew Point Humidity Pressure Visibility Wind Dir Wind Speed Gust Speed Precip Events Conditions
12:15 AM 33.8 °F 30.8 °F 32.0 °F 93% 30.28 in 10.0 mi North 3.5 mph - N/A   Clear
1:15 AM 35.6 °F - 33.8 °F 93% 30.26 in 10.0 mi Calm Calm - N/A   Mostly Cloudy
1:35 AM 35.6 °F - 33.8 °F 93% 30.26 in 10.0 mi Calm Calm - N/A   Mostly Cloudy
1:55 AM 35.6 °F - 33.8 °F 93% 30.25 in 10.0 mi Calm Calm - N/A   Scattered Clouds
2:15 AM 35.6 °F - 33.8 °F 93% 30.23 in 10.0 mi Calm Calm - N/A   Clear
7:15 AM 35.6 °F - 35.6 °F 100% 30.13 in 10.0 mi Calm Calm - N/A   Scattered Clouds
7:35 AM 37.4 °F - 37.4 °F 100% 30.14 in 10.0 mi Calm Calm - N/A   Scattered Clouds
7:55 AM 42.8 °F - 41.0 °F 93% 30.14 in 10.0 mi Calm Calm - N/A   Mostly Cloudy
8:15 AM 44.6 °F - 42.8 °F 93% 30.15 in 10.0 mi Calm Calm - N/A   Mostly Cloudy
8:35 AM 46.4 °F - 44.6 °F 93% 30.15 in 10.0 mi Calm Calm - N/A   Scattered Clouds
8:55 AM 50.0 °F - 46.4 °F 87% 30.15 in 10.0 mi South 3.5 mph - N/A   Scattered Clouds
9:15 AM 51.8 °F - 46.4 °F 82% 30.15 in 10.0 mi SSW 3.5 mph - N/A   Scattered Clouds
9:35 AM 53.6 °F - 46.4 °F 77% 30.13 in 10.0 mi South 4.6 mph - N/A   Scattered Clouds
10:15 AM 55.4 °F - 48.2 °F 77% 30.10 in 10.0 mi South 4.6 mph - N/A   Overcast
10:35 AM 57.2 °F - 48.2 °F 72% 30.11 in 10.0 mi South 3.5 mph - N/A   Overcast
10:55 AM 59.0 °F - 50.0 °F 72% 30.10 in 10.0 mi SSW 3.5 mph - N/A Rain Rain
11:15 AM 57.2 °F - 50.0 °F 77% 30.11 in 10.0 mi South 6.9 mph - N/A Rain Light Rain
11:35 AM 57.2 °F - 51.8 °F 82% 30.09 in 10.0 mi South 10.4 mph 18.4 mph N/A Rain Rain
11:55 AM 55.4 °F - 51.8 °F 88% 30.08 in 10.0 mi South 5.8 mph - N/A Rain Rain
12:15 PM 55.4 °F - 53.6 °F 94% 30.08 in 10.0 mi South 3.5 mph - N/A Rain Light Rain
12:35 PM 55.4 °F - 53.6 °F 94% 30.06 in 10.0 mi South 3.5 mph - N/A Rain Light Rain
12:55 PM 55.4 °F - 55.4 °F 100% 30.06 in 7.0 mi Calm Calm - N/A Rain Rain
1:15 PM 55.4 °F - 55.4 °F 100% 30.03 in 10.0 mi South 4.6 mph - N/A Rain Rain
1:35 PM 55.4 °F - 55.4 °F 100% 30.02 in 10.0 mi SSE 5.8 mph - N/A   Drizzle
2:15 PM 55.4 °F - 55.4 °F 100% 30.01 in 5.0 mi South 6.9 mph - N/A Rain Rain
2:35 PM 55.4 °F - 55.4 °F 100% 30.00 in 4.0 mi South 5.8 mph - N/A Rain Light Rain
2:55 PM 55.4 °F - 55.4 °F 100% 29.99 in 4.0 mi South 9.2 mph - N/A Rain Rain
3:15 PM 55.4 °F - 55.4 °F 100% 29.99 in 10.0 mi South 9.2 mph - N/A   Overcast
3:35 PM 55.4 °F - 55.4 °F 100% 29.99 in 7.0 mi SSW 6.9 mph - N/A   Overcast
4:15 PM 55.4 °F - 55.4 °F 100% 30.00 in 5.0 mi SW 4.6 mph - N/A   Drizzle
4:35 PM 55.4 °F - 55.4 °F 100% 29.99 in 2.0 mi SW 5.8 mph - N/A   Drizzle
4:55 PM 55.4 °F - 55.4 °F 100% 29.99 in 2.0 mi SW 4.6 mph - N/A   Heavy Drizzle
5:15 PM 55.4 °F - 55.4 °F 100% 30.00 in 3.0 mi WSW 5.8 mph - N/A   Drizzle
5:35 PM 55.4 °F - 55.4 °F 100% 30.00 in 10.0 mi SW 4.6 mph - N/A   Overcast
5:55 PM 55.4 °F - 55.4 °F 100% 30.00 in 10.0 mi SW 4.6 mph - N/A   Overcast
6:15 PM 55.4 °F - 55.4 °F 100% 30.01 in 7.0 mi WSW 4.6 mph - N/A   Overcast
7:55 PM 50.0 °F - 50.0 °F 100% 30.03 in 10.0 mi SW 3.5 mph - N/A   Clear
8:15 PM 50.0 °F - 50.0 °F 100% 30.03 in 5.0 mi Calm Calm - N/A   Clear
8:55 PM 46.4 °F 45.2 °F 46.4 °F 100% 30.03 in 0.2 mi SSW 3.5 mph - N/A Fog Fog
9:15 PM 46.4 °F 45.2 °F 46.4 °F 100% 30.04 in 0.5 mi SSW 3.5 mph - N/A Fog Fog
9:35 PM 46.4 °F - 46.4 °F 100% 30.04 in 0.8 mi Calm Calm - N/A   Mist
9:55 PM 44.6 °F 42.2 °F 44.6 °F 100% 30.04 in 0.5 mi SSW 4.6 mph - N/A Fog Fog
10:15 PM 44.6 °F 43.1 °F 44.6 °F 100% 30.04 in 0.8 mi SW 3.5 mph - N/A   Mist
10:35 PM 44.6 °F 42.2 °F 44.6 °F 100% 30.04 in 0.8 mi SW 4.6 mph - N/A   Mist
10:55 PM 48.2 °F - 48.2 °F 100% 30.05 in 7.0 mi WSW 6.9 mph - N/A   Mostly Cloudy
11:15 PM 48.2 °F - 48.2 °F 100% 30.06 in 10.0 mi WSW 6.9 mph - N/A   Mostly Cloudy
11:35 PM 48.2 °F - 48.2 °F 100% 30.06 in 10.0 mi WSW 5.8 mph - N/A   Mostly Cloudy
11:55 PM 44.6 °F 43.1 °F 44.6 °F 100% 30.05 in 5.0 mi WSW 3.5 mph - N/A   Scattered Clouds